Orbital Elements at Epoch 2459200.5 (2020-Dec-17.0) TDB
Reference: JPL 30 (heliocentric ecliptic J2000)
Element | Value | Uncertainty (1-sigma) | Units |
e | .0300468834944837 | 4.1595e-08 | |
a | 3.223086069350157 | 2.3117e-08 | au |
q | 3.126242377731699 | 1.4578e-07 | au |
i | 12.79346551381571 | 3.1632e-06 | deg |
node | 285.6713898410392 | 2.0211e-05 | deg |
peri | 161.0499000095371 | 7.7776e-05 | deg |
M | 319.080475914131 | 7.3891e-05 | deg |
tp | 2459440.733934830660 (2021-Aug-14.23393483) | 0.0004335 | TDB |
period | 2113.519608819296 5.79 | 2.2738e-05 6.225e-08 | d yr |
n | .1703319895863714 | 1.8325e-09 | deg/d |
Q | 3.319929760968614 | 2.3811e-08 | au |
|
| | Orbit Determination Parameters
Additional Information
|